Plovdiv, Bulgaria

5:35 PM EET on December 09, 2019 (GMT +0200)
Plovdiv

Weather History for LBPD - October, 2019

Change the Weather History Date:

Wednesday, October 16, 2019

  Actual Average (WUND) Record (WUND)
Temperature  
Mean Temperature 58 °F -  
Max Temperature 75 °F - - (-1)
Min Temperature 42 °F - - (-1)
Degree Days  
Heating Degree Days 6    
Growing Degree Days 8 (Base 50)    
Moisture  
Dew Point 46 °F    
Average Humidity 66    
Maximum Humidity 93    
Minimum Humidity 36    
Precipitation  
Precipitation 0.00 in - - ()
Sea Level Pressure  
Sea Level Pressure 30.06 in    
Wind  
Wind Speed 2 mph ()    
Max Wind Speed 8 mph    
Max Gust Speed -    
Visibility 5.8 miles    
Events Fog , Rain    
Averages and records for this station are not official NWS values.
T = Trace of Precipitation, MM = Missing Value Source: Averaged Metar Reports

Daily Weather History Graph

Daily Weather History Graph

Search for Another Location

Airport or City:

Astronomy

Oct. 16, 2019 Rise Set
Actual Time 7:34 AM EEST 6:38 PM EEST
Civil Twilight 7:05 AM EEST 7:06 PM EEST
Nautical Twilight 6:33 AM EEST 7:39 PM EEST
Astronomical Twilight 6:01 AM EEST 8:11 PM EEST
Moon 8:18 PM EEST (10/16) 9:47 AM EEST (10/16)
Length of Visible Light 12h 00m
Length of Day
11h 04m
Waning Gibbous, 94% of the Moon is Illuminated
Oct 16
Waning Gibbous
Oct 21
Last Quarter
Oct 28
New
Nov 4
First Quarter
Nov 12
Full

Hourly Weather History & Observations

Time (EEST) Temp. Windchill Dew Point Humidity Pressure Visibility Wind Dir Wind Speed Gust Speed Precip Events Conditions
12:30 AM 53.6 °F - 46.4 °F 77% 30.09 in 6.2 mi Calm Calm - N/A   Unknown
1:00 AM 59.0 °F - 50.0 °F 72% 30.09 in 6.2 mi Calm Calm - N/A   Unknown
1:30 AM 53.6 °F - 44.6 °F 72% 30.09 in 6.2 mi South 6.9 mph - N/A   Unknown
2:00 AM 55.4 °F - 50.0 °F 82% 30.09 in 6.2 mi Calm Calm - N/A   Unknown
2:30 AM 53.6 °F - 46.4 °F 77% 30.09 in 6.2 mi Calm Calm - N/A   Unknown
3:00 AM 55.4 °F - 46.4 °F 72% 30.09 in 6.2 mi Calm Calm - N/A   Unknown
3:30 AM 48.2 °F - 42.8 °F 82% 30.06 in 6.2 mi West 3.5 mph - N/A   Unknown
4:00 AM 50.0 °F - 42.8 °F 76% 30.06 in 6.2 mi Calm Calm - N/A   Unknown
4:30 AM 46.4 °F 44.3 °F 41.0 °F 81% 30.06 in 6.2 mi WNW 4.6 mph - N/A   Unknown
5:00 AM 46.4 °F - 42.8 °F 87% 30.06 in 6.2 mi Calm Calm - N/A   Unknown
5:30 AM 44.6 °F - 41.0 °F 87% 30.09 in 6.2 mi Calm Calm - N/A   Unknown
6:00 AM 44.6 °F - 41.0 °F 87% 30.09 in 6.2 mi Calm Calm - N/A   Scattered Clouds
6:30 AM 44.6 °F - 41.0 °F 87% 30.09 in 1.1 mi Calm Calm - N/A Rain Light Rain
7:00 AM 42.8 °F - 39.2 °F 87% 30.09 in 5.6 mi Calm Calm - N/A   Scattered Clouds
7:30 AM 44.6 °F - 42.8 °F 93% 30.09 in 6.2 mi Calm Calm - N/A   Scattered Clouds
8:00 AM 42.8 °F - 39.2 °F 87% 30.09 in 1.2 mi Calm Calm - N/A Fog Patches of Fog
8:30 AM 46.4 °F - 42.8 °F 87% 30.09 in 3.7 mi Calm Calm - N/A Fog Patches of Fog
9:00 AM 48.2 °F - 44.6 °F 87% 30.09 in 0.1 mi Calm Calm - N/A Fog Patches of Fog
9:30 AM 51.8 °F - 46.4 °F 82% 30.09 in 6.2 mi Calm Calm - N/A   Partly Cloudy
10:00 AM 55.4 °F - 48.2 °F 77% 30.09 in 6.2 mi Variable 1.2 mph - N/A   Unknown
10:30 AM 57.2 °F - 44.6 °F 63% 30.09 in 6.2 mi Variable 1.2 mph - N/A   Unknown
11:00 AM 59.0 °F - 46.4 °F 63% 30.09 in 6.2 mi Variable 1.2 mph - N/A   Unknown
11:30 AM 62.6 °F - 44.6 °F 52% 30.09 in 6.2 mi Variable 2.3 mph - N/A   Unknown
12:00 PM 64.4 °F - 46.4 °F 52% 30.09 in 6.2 mi Variable 2.3 mph - N/A   Unknown
12:30 PM 66.2 °F - 46.4 °F 49% 30.09 in 6.2 mi Variable 3.5 mph - N/A   Unknown
1:00 PM 68.0 °F - 46.4 °F 46% 30.06 in 6.2 mi Variable 3.5 mph - N/A   Unknown
1:30 PM 69.8 °F - 46.4 °F 43% 30.06 in 6.2 mi Variable 3.5 mph - N/A   Unknown
2:00 PM 71.6 °F - 46.4 °F 41% 30.04 in 6.2 mi Variable 3.5 mph - N/A   Unknown
2:30 PM 71.6 °F - 46.4 °F 41% 30.04 in 6.2 mi Variable 3.5 mph - N/A   Unknown
3:00 PM 73.4 °F - 48.2 °F 41% 30.04 in 6.2 mi Variable 4.6 mph - N/A   Unknown
3:30 PM 75.2 °F - 48.2 °F 38% 30.04 in 6.2 mi East 5.8 mph - N/A   Unknown
4:00 PM 75.2 °F - 46.4 °F 36% 30.01 in 6.2 mi East 5.8 mph - N/A   Unknown
4:30 PM 75.2 °F - 46.4 °F 36% 30.01 in 6.2 mi East 6.9 mph - N/A   Unknown
5:00 PM 75.2 °F - 48.2 °F 38% 30.01 in 6.2 mi East 5.8 mph - N/A   Unknown
5:30 PM 75.2 °F - 46.4 °F 36% 30.01 in 6.2 mi East 6.9 mph - N/A   Unknown
6:00 PM 73.4 °F - 48.2 °F 41% 30.01 in 6.2 mi East 5.8 mph - N/A   Unknown
6:30 PM 69.8 °F - 50.0 °F 49% 30.01 in 6.2 mi East 5.8 mph - N/A   Unknown
7:00 PM 68.0 °F - 50.0 °F 52% 30.01 in 6.2 mi SSE 3.5 mph - N/A   Unknown
7:30 PM 62.6 °F - 50.0 °F 63% 30.04 in 6.2 mi SSE 3.5 mph - N/A   Unknown
8:00 PM 64.4 °F - 50.0 °F 59% 30.04 in 6.2 mi ESE 8.1 mph - N/A   Unknown
8:30 PM 60.8 °F - 50.0 °F 68% 30.04 in 6.2 mi SE 6.9 mph - N/A   Unknown
9:00 PM 57.2 °F - 46.4 °F 67% 30.04 in 6.2 mi South 4.6 mph - N/A   Unknown
9:30 PM 60.8 °F - 46.4 °F 59% 30.04 in 6.2 mi South 6.9 mph - N/A   Unknown
10:00 PM 57.2 °F - 50.0 °F 77% 30.06 in 6.2 mi Calm Calm - N/A   Unknown
10:30 PM 57.2 °F - 50.0 °F 77% 30.06 in 6.2 mi Calm Calm - N/A   Unknown
11:00 PM 51.8 °F - 46.4 °F 82% 30.06 in 6.2 mi WSW 4.6 mph - N/A   Unknown
11:30 PM 53.6 °F - 46.4 °F 77% 30.06 in 6.2 mi WNW 3.5 mph - N/A   Unknown